Wind_Speed
19 17 16 13 14 19 19 19 19 18 16 15 16 16 13 8 7 7 5 3 4 5 4 5 5 5 4 4 4 4 5 7 7 7 8 9 9 9 10 10 10 10 10 11 12 14 15 15 16 17 17 17 16 16 15 15 14 13 11 7 5 7 6 5 5 3 2 4 4 3 2 2 3 4 4 5 5 6 7 7 7 8 9 10 10 12 12 13
18 15 17 9 8 16 20 20 20 19 18 16 15 14 9 7 6 5 5 5 5 5 5 5 5 3 2 2 2 3 5 6 7 8 9 10 10 10 11 11 12 12 12 12 13 14 17 18 17 18 18 16 15 15 14 14 13 12 12 7 6 6 4 3 3 2 2 2 2 2 2 2 3 5 5 5 6 7 7 7 8 8 9 10 11 12 12 12
19 17 17 12 7 15 19 20 20 17 15 12 10 9 8 6 5 6 6 6 6 5 6 5 4 2 2 2 3 3 4 6 7 9 10 10 10 11 11 12 12 12 12 12 13 13 15 18 18 17 17 15 14 14 13 13 11 10 9 7 7 5 3 4 3 2 1 1 2 2 3 3 4 5 6 7 7 7 7 8 9 10 10 11 11 12 12 12
21 18 13 7 4 14 18 20 18 12 10 9 8 7 6 5 5 6 7 8 7 6 6 5 4 2 1 1 1 2 3 6 7 9 10 10 11 12 12 12 12 13 13 12 13 13 14 16 16 16 15 14 13 12 11 9 9 8 5 5 7 5 4 4 2 1 1 2 2 3 4 4 5 6 6 7 8 8 7 8 10 11 12 12 12 12 12 12
13 7 4 7 8 13 19 17 10 8 10 9 7 5 5 5 6 8 8 9 7 6 5 5 4 2 2 2 1 1 4 6 8 10 10 11 12 12 13 13 13 13 13 13 13 13 14 15 14 14 13 13 12 11 9 8 7 6 5 4 5 3 2 2 1 0 2 3 4 5 5 6 6 7 7 7 9 9 8 8 10 12 13 13 13 13 13 13
11 9 6 6 6 11 14 9 6 8 8 6 5 5 5 7 9 9 9 9 7 5 5 4 3 2 2 2 2 4 4 5 9 11 11 12 13 13 13 13 13 13 12 12 12 12 13 13 13 12 12 11 10 9 8 7 7 6 5 4 3 2 1 0 1 2 3 4 5 6 6 7 7 7 7 7 8 9 9 9 9 12 13 13 13 14 14 14
13 7 2 2 7 9 8 7 8 7 6 6 6 5 6 8 10 10 10 8 6 5 4 3 3 2 2 2 5 4 4 8 11 12 13 14 13 13 13 13 13 12 12 12 11 11 11 12 12 11 11 10 9 8 7 7 6 5 4 3 1 1 1 1 2 3 4 5 6 6 7 8 8 8 8 8 8 9 9 10 10 12 13 13 13 13 13 13
8 6 5 6 8 8 8 8 7 6 6 6 5 5 7 9 10 10 9 7 5 4 3 3 3 3 3 4 4 4 8 11 12 13 14 14 14 13 13 12 12 11 11 11 11 10 10 10 11 10 9 9 8 7 6 5 4 4 3 1 1 1 2 3 4 5 6 6 6 7 8 8 9 9 8 8 8 9 10 10 11 12 13 13 12 12 12 12
7 7 7 7 6 6 5 6 6 5 5 6 6 6 8 10 10 9 8 5 4 3 3 4 4 4 4 4 4 7 12 12 12 14 14 14 13 13 12 12 11 11 10 10 10 9 8 9 10 9 8 8 7 5 4 2 1 2 1 0 2 3 4 5 5 6 7 7 7 8 8 8 9 9 8 8 10 9 10 11 11 12 13 13 12 12 11 11
8 7 6 5 4 3 3 4 5 6 7 7 7 8 10 10 9 9 6 4 3 3 3 4 4 4 3 5 8 11 13 13 13 14 14 13 13 12 12 11 11 11 10 9 9 8 8 8 8 7 7 6 5 3 2 1 1 0 1 1 3 4 4 5 6 7 7 8 8 8 10 9 8 9 8 9 11 10 11 11 11 12 13 13 12 12 12 12
8 7 6 5 5 5 5 5 6 8 8 8 9 10 10 10 9 7 5 4 4 3 4 4 4 4 6 9 11 11 12 13 13 13 13 13 12 12 11 11 10 9 9 9 8 8 8 7 6 5 4 4 3 1 1 1 1 1 2 2 4 4 4 6 7 7 8 8 9 9 10 9 7 9 9 10 11 11 11 11 12 12 13 14 13 12 12 12
8 7 7 7 7 7 7 7 8 9 9 10 11 11 10 9 8 6 5 5 4 4 5 5 5 6 8 10 11 11 11 12 12 12 12 12 12 12 10 10 9 8 7 7 7 7 6 5 4 3 2 3 1 1 1 2 2 2 3 3 5 4 4 6 8 8 9 8 9 10 9 7 7 9 10 10 11 11 11 12 12 13 14 14 14 13 12 11
8 8 8 8 8 8 8 8 9 9 10 10 11 11 10 9 7 6 5 5 5 5 6 7 7 7 8 9 11 11 11 11 11 11 11 11 11 10 9 8 7 7 6 5 5 5 4 3 3 2 1 2 1 1 1 2 3 3 4 4 5 5 4 8 9 8 8 8 8 9 8 7 8 9 10 9 10 11 11 11 12 13 14 13 13 13 11 10
8 8 8 9 9 9 9 10 10 10 10 10 10 9 8 7 6 5 5 5 5 5 6 7 8 7 7 9 11 10 10 11 11 11 11 10 9 9 8 7 6 6 5 4 3 2 2 1 1 1 0 0 1 1 2 3 3 4 4 4 6 7 7 10 10 8 8 7 8 8 8 9 8 6 8 9 9 11 10 10 10 11 12 11 11 11 11 10
8 8 8 9 10 10 11 11 12 11 10 10 8 8 7 6 5 5 4 4 5 5 6 6 6 8 9 10 10 9 10 10 10 10 10 9 9 8 7 6 4 3 3 3 2 1 1 0 1 0 1 1 1 2 2 3 3 4 3 4 7 8 9 10 8 8 8 7 8 8 7 9 8 6 7 8 8 10 10 9 9 9 10 9 9 10 10 9
8 9 9 10 10 11 12 12 12 12 10 9 8 7 6 5 5 5 4 5 5 5 6 7 8 9 9 9 9 8 8 8 8 8 8 8 7 6 5 4 3 3 2 2 2 1 1 1 1 1 1 0 2 3 2 2 4 4 4 4 5 7 9 10 8 8 9 7 7 8 7 7 10 9 7 8 9 10 10 8 8 8 8 8 8 8 9 9
9 10 10 11 11 12 13 13 12 12 10 8 7 6 6 6 6 6 6 6 6 6 7 8 9 9 8 8 8 7 6 7 7 7 7 7 6 5 5 4 3 3 2 2 2 1 1 1 1 2 1 1 2 2 2 2 2 4 5 4 6 8 8 9 9 9 9 9 8 10 8 5 10 12 8 6 8 11 10 8 8 7 5 5 7 7 7 8
9 10 11 11 12 12 12 12 12 11 9 8 7 7 7 7 6 6 6 6 6 6 7 8 8 6 6 7 6 6 6 6 6 6 6 5 5 5 4 3 3 2 3 3 2 2 1 1 1 1 1 1 1 1 2 1 2 4 4 4 7 8 9 9 9 10 11 10 9 11 9 5 8 13 11 7 6 10 11 9 8 8 6 4 4 5 6 6
10 10 11 12 12 12 12 12 12 10 9 8 7 6 6 6 5 5 5 5 6 5 6 7 5 4 6 6 5 5 5 5 5 5 5 4 4 4 3 3 3 3 3 3 3 2 2 1 1 1 1 2 1 0 1 1 3 4 4 5 6 7 10 11 10 12 13 12 11 11 11 9 8 11 14 11 6 9 11 10 10 10 9 7 4 3 4 4
10 11 11 12 12 12 11 11 10 9 8 7 6 6 6 6 5 5 4 4 4 3 5 6 3 4 6 5 4 5 4 4 4 4 4 4 3 3 3 3 3 3 3 3 2 2 2 1 2 2 2 2 1 1 1 2 2 4 5 6 7 7 9 11 11 12 13 12 12 11 12 11 9 10 13 12 8 9 10 11 11 10 10 9 7 5 4 4
11 11 12 12 12 11 10 9 9 8 7 5 5 5 5 5 4 4 4 2 3 4 5 5 4 6 6 4 4 4 3 3 3 3 3 3 3 3 3 3 3 4 3 1 1 1 2 3 3 2 1 1 1 2 2 3 3 5 5 6 7 8 10 12 11 11 13 13 12 13 11 7 8 11 10 10 9 9 10 10 11 10 10 9 9 8 7 6
11 11 12 11 11 10 9 9 8 7 6 6 6 6 5 5 5 5 4 3 4 5 5 5 5 6 5 4 4 3 3 2 2 2 2 2 3 3 3 3 3 3 2 2 2 2 3 3 2 2 1 1 2 2 3 4 4 6 6 7 7 9 11 12 10 11 13 14 12 13 11 5 6 9 8 8 8 7 9 9 9 9 10 10 9 9 9 9
11 11 11 10 10 9 8 7 7 7 7 7 7 7 7 7 7 7 6 4 4 6 5 5 5 5 5 5 4 3 4 3 3 3 3 3 3 3 3 3 3 3 3 2 1 1 2 2 1 1 2 2 3 4 5 5 5 6 6 7 8 10 12 13 12 13 14 14 12 12 12 6 4 5 7 6 5 6 8 8 8 9 9 10 10 10 10 10
10 10 10 9 8 7 7 7 7 7 7 7 8 8 7 8 7 7 6 4 4 5 5 5 6 6 5 5 4 4 4 3 3 4 4 4 3 4 4 3 3 4 4 2 2 2 1 1 1 2 2 3 4 5 6 6 5 5 6 6 9 11 12 14 15 14 12 12 10 12 11 3 2 7 7 4 3 5 7 8 8 8 9 9 10 10 10 11
9 9 9 8 7 6 6 6 7 7 7 7 8 8 7 8 7 6 5 3 4 4 4 5 5 5 5 5 5 4 4 4 4 4 3 3 3 3 3 3 3 3 3 1 1 2 1 1 2 3 3 5 5 5 6 6 6 6 5 7 10 12 13 15 16 13 10 8 8 12 8 1 5 9 6 3 3 4 7 8 7 6 7 7 8 8 9 10
9 9 9 8 6 5 6 7 7 6 6 6 6 7 7 6 5 4 2 0 1 3 3 4 4 3 4 4 5 5 4 4 4 4 3 3 3 3 3 3 3 3 2 2 1 1 2 2 3 3 4 5 6 5 6 6 7 7 7 9 11 12 15 15 13 10 7 6 9 11 5 4 10 9 4 3 4 5 7 7 7 6 7 7 7 7 8 9
9 9 9 7 6 5 6 6 6 6 6 5 5 5 5 4 3 2 1 2 3 4 3 4 3 3 3 5 5 3 2 3 3 3 3 3 3 3 3 3 3 2 2 1 1 1 2 3 3 4 5 6 6 6 7 8 8 8 8 10 11 13 15 13 11 8 6 7 10 7 4 7 10 6 3 3 4 7 9 7 6 6 7 8 9 9 9 10
9 8 8 7 6 6 6 6 6 5 5 4 4 3 3 2 1 1 1 2 2 4 4 4 4 3 4 5 3 2 2 3 2 2 3 3 3 4 3 3 3 3 2 1 3 2 1 3 4 5 6 7 7 8 8 9 9 8 10 11 12 13 14 12 9 8 7 8 6 4 4 6 8 5 2 3 5 9 11 9 7 7 8 9 10 10 11 12
8 8 7 7 6 6 6 5 5 4 3 3 4 4 2 1 1 2 2 2 2 4 5 5 4 5 5 3 2 2 4 3 1 2 2 3 3 3 3 4 3 3 3 3 4 3 1 4 4 5 6 7 8 9 9 9 9 9 10 11 13 14 13 10 8 8 7 5 3 4 3 5 5 4 3 4 7 11 13 11 8 9 11 12 12 11 11 12
7 6 6 6 6 5 5 4 4 3 3 3 4 5 4 3 3 2 1 2 3 4 6 5 5 6 5 3 2 2 3 2 2 3 2 2 3 2 2 3 3 3 4 4 3 3 3 3 4 5 6 7 8 9 8 9 9 10 10 11 13 12 10 7 6 7 5 3 3 5 4 7 3 2 3 6 9 12 12 9 8 10 12 13 14 14 13 13
5 5 6 5 4 4 4 3 2 3 3 3 4 5 5 4 4 3 2 3 3 5 7 6 6 7 5 3 3 2 3 2 2 3 2 2 3 3 3 3 2 1 3 4 3 3 3 3 5 5 5 7 8 8 8 8 8 9 10 12 11 8 5 3 4 3 1 1 3 2 9 10 2 1 5 8 11 11 8 8 10 12 13 14 15 15 16 16
4 4 4 4 3 3 2 2 2 2 2 3 3 4 5 4 5 6 5 4 2 4 8 6 6 7 5 4 4 3 3 2 1 1 1 2 2 3 3 4 3 0 1 4 3 3 3 4 5 4 5 7 7 8 8 7 7 8 8 10 8 4 3 2 2 2 0 0 1 7 13 8 3 4 7 10 11 8 6 10 12 14 15 15 16 16 16 16
3 2 2 2 1 1 1 1 1 2 2 3 3 4 4 3 3 5 5 4 2 3 7 7 6 7 6 4 4 3 2 2 2 2 1 2 2 2 3 4 4 2 2 3 3 4 4 3 3 5 6 6 7 10 9 8 7 7 7 9 6 2 2 2 2 3 1 3 11 15 10 4 3 5 7 10 9 6 8 12 13 15 16 16 16 17 17 17
2 2 2 2 1 1 0 1 1 2 2 3 3 4 5 4 3 5 5 5 5 4 7 8 6 6 6 5 4 3 3 3 3 2 1 1 1 2 2 3 3 3 3 2 1 4 5 3 4 6 6 5 7 9 10 10 7 5 7 8 5 4 2 0 2 2 3 8 15 13 5 3 7 8 10 11 7 5 9 13 15 17 17 17 17 17 17 18
2 2 2 2 1 0 1 2 2 3 3 4 4 5 5 4 5 6 6 7 7 6 7 9 7 6 6 5 5 4 4 4 3 3 2 1 1 1 1 2 2 3 3 1 1 3 4 3 4 6 5 5 6 7 9 9 4 3 6 5 4 4 1 2 4 5 6 8 8 6 4 7 11 13 12 8 5 5 10 15 20 20 19 18 18 17 17 17
3 3 3 2 1 1 2 3 3 4 4 5 6 7 7 6 6 7 7 7 8 7 8 10 8 7 7 6 6 5 5 4 4 4 4 3 3 3 2 2 2 2 3 3 2 2 3 4 5 6 5 4 6 8 8 6 3 4 4 3 4 4 2 4 5 5 5 3 3 5 8 11 13 13 9 4 5 7 11 17 23 24 22 20 19 19 17 17
4 4 3 2 2 3 3 4 5 5 5 6 6 7 7 8 8 9 9 8 7 7 9 10 8 7 7 5 5 6 5 5 5 4 4 3 3 3 2 2 3 3 3 3 1 3 6 6 5 5 4 5 8 8 6 5 5 5 4 2 4 3 2 4 3 3 2 2 4 6 9 13 13 10 6 7 9 10 12 17 23 28 27 23 23 22 19 18
5 5 4 4 4 4 5 5 5 6 6 6 6 6 7 8 8 8 8 7 7 7 9 10 7 6 6 5 5 6 6 5 5 4 4 3 3 2 2 3 4 3 3 3 3 5 6 5 5 4 4 6 9 7 4 5 6 7 5 4 3 1 1 3 2 2 1 2 4 5 8 13 13 9 7 8 11 13 16 16 21 29 31 27 26 23 21 20
6 6 6 6 6 6 6 6 6 6 6 6 6 6 6 7 7 7 6 6 7 7 9 10 7 5 7 6 5 6 6 5 4 3 3 2 3 3 4 4 5 4 4 4 5 6 6 5 4 4 5 9 9 5 5 7 8 8 5 4 3 2 2 3 2 2 1 2 4 4 5 7 6 6 8 10 14 17 17 17 21 29 32 30 28 25 21 20
8 8 8 7 7 7 7 7 6 6 7 7 7 7 7 7 7 6 6 6 7 6 7 10 7 4 6 7 6 6 6 6 5 5 4 3 4 4 5 5 5 5 5 6 7 6 6 5 4 6 9 9 7 5 8 10 9 7 5 4 4 3 2 4 4 3 3 2 1 2 6 9 6 7 11 13 15 17 15 16 22 29 33 32 30 26 22 21
9 9 8 8 8 8 7 7 7 7 7 7 7 7 8 7 7 6 5 5 5 5 6 8 8 5 4 6 6 6 6 7 7 6 6 6 6 5 4 4 4 5 6 7 7 6 5 5 7 10 10 10 9 8 10 11 9 7 5 4 4 3 3 3 2 4 4 4 3 1 7 13 11 6 8 8 10 13 13 17 24 30 31 31 30 27 24 24
8 8 8 8 8 8 8 8 8 8 8 7 7 8 8 7 7 6 6 5 5 5 6 6 7 7 5 5 6 6 6 7 7 7 7 7 6 5 5 5 5 6 7 8 7 6 6 7 9 10 9 10 10 11 11 9 7 5 3 3 4 4 5 3 2 4 5 6 7 4 6 13 11 3 3 7 10 12 14 20 28 31 29 28 28 26 24 26
6 6 7 7 8 8 8 9 9 9 9 8 8 9 8 8 7 6 6 6 5 5 6 6 7 7 7 6 6 6 6 6 7 8 8 8 7 7 7 7 7 7 8 7 6 6 6 7 8 9 10 10 9 9 8 6 4 3 3 4 5 6 7 7 8 9 8 10 11 5 5 9 5 1 8 16 18 18 20 27 32 32 29 27 26 26 24 25
6 6 6 7 7 8 9 10 10 10 10 9 10 10 9 8 8 7 6 6 6 6 6 7 7 7 7 6 6 6 7 7 7 7 8 8 8 7 7 8 8 8 8 8 7 7 7 7 7 8 8 6 5 3 3 3 4 6 7 8 9 10 10 10 13 12 11 13 12 7 7 11 8 10 19 26 27 27 29 32 33 31 30 28 27 26 25 26
6 6 7 7 8 8 9 10 10 10 10 11 11 11 10 9 8 7 7 7 8 7 7 8 8 8 8 8 8 8 8 8 8 8 8 8 8 8 8 9 9 9 9 9 9 9 9 10 10 7 3 2 4 4 5 8 11 13 14 13 12 13 12 13 12 11 11 13 12 14 18 26 25 26 29 30 30 30 28 29 29 28 29 30 28 27 26 26
7 7 7 7 8 9 10 10 11 11 11 12 12 11 10 10 9 8 8 8 9 9 9 9 9 9 9 9 9 10 10 11 11 10 9 9 9 9 9 10 10 11 11 11 11 11 12 13 12 11 10 10 11 12 13 16 18 18 18 17 16 15 15 16 14 16 17 18 21 26 30 34 35 33 29 27 25 25 23 22 23 24 27 29 27 25 25 26
7 7 7 8 8 8 8 9 10 11 11 11 12 11 10 10 9 9 9 10 10 10 10 11 11 11 11 10 10 11 11 12 12 13 13 12 12 12 12 12 13 12 12 12 12 12 15 15 15 15 15 15 15 17 18 19 19 20 20 20 20 18 19 22 22 24 23 19 24 32 32 32 35 30 22 19 19 20 20 19 20 23 24 24 23 22 23 25
8 8 8 8 8 8 8 9 9 9 10 10 11 11 10 10 10 10 10 11 11 11 12 12 11 12 12 12 12 13 13 13 13 14 13 13 13 13 14 13 13 14 13 13 14 14 16 18 18 18 18 17 17 18 18 20 22 22 22 23 23 21 23 26 28 29 26 25 30 36 33 31 31 24 16 14 16 19 19 19 21 21 20 18 19 22 25 28
10 10 10 10 10 10 11 11 11 11 11 11 12 11 11 11 11 11 11 12 12 12 13 12 11 12 13 13 14 14 14 14 14 14 13 13 13 13 14 14 14 15 15 14 15 15 17 19 20 20 21 20 19 19 21 22 24 24 24 24 25 25 26 30 31 30 30 33 33 31 29 27 24 21 19 17 16 17 18 20 20 17 15 16 19 25 31 33
11 11 11 11 12 12 12 12 12 13 13 13 13 13 13 12 12 12 13 13 13 13 14 13 12 13 14 14 15 15 15 15 16 16 15 15 15 15 15 16 16 16 16 15 16 16 18 20 21 22 25 25 23 22 22 22 23 25 28 27 27 28 28 30 27 23 25 28 24 20 24 26 20 19 20 17 15 17 19 20 17 12 16 22 27 32 35 36
12 13 13 13 13 13 13 13 13 14 13 13 13 13 13 13 13 14 14 14 15 15 15 14 14 15 16 16 16 16 16 16 17 18 17 18 18 17 18 18 18 18 18 17 18 19 19 21 23 23 24 26 25 22 21 23 26 30 32 28 22 20 18 17 16 15 19 22 19 19 25 25 20 16 18 19 19 20 19 16 13 15 24 31 33 35 36 37
14 14 14 14 15 15 15 15 15 15 14 14 14 14 14 14 14 14 15 15 15 15 15 16 16 16 17 17 17 17 17 18 18 19 18 19 19 19 20 21 21 21 21 20 20 21 21 22 23 21 20 22 23 20 22 24 23 25 28 20 10 7 8 14 18 20 22 23 23 25 25 22 19 18 20 19 18 16 15 15 19 27 32 34 34 33 35 38
Wind_Direction
205 206 207 214 224 222 223 225 225 222 215 209 201 188 173 183 232 227 206 199 183 162 150 132 113 108 105 106 117 116 113 109 106 108 107 105 102 97 98 101 106 112 119 126 131 136 137 139 143 145 145 146 146 145 144 143 145 146 136 130 173 183 183 185 188 192 150 134 128 111 92 51 29 17 9 2 354 347 344 339 340 341 341 340 342 346 347 344
205 194 193 219 243 216 218 222 222 215 204 195 179 173 187 224 230 199 187 178 163 157 146 126 113 111 111 114 119 119 117 115 121 124 111 99 94 94 98 101 106 112 118 124 129 134 136 137 140 141 140 142 144 143 145 145 149 151 141 152 205 202 188 171 171 169 123 114 100 80 40 14 8 0 351 345 339 335 334 334 338 340 340 340 345 348 345 341
209 201 210 254 249 202 207 202 191 184 178 171 167 186 216 220 197 185 172 154 149 142 135 126 123 130 135 124 106 100 116 122 128 121 101 94 99 102 105 108 112 115 118 122 125 130 134 133 135 138 137 139 142 141 146 149 154 164 153 156 181 186 174 162 158 149 100 68 55 30 3 357 355 350 343 335 328 332 335 334 340 343 341 343 349 349 342 338
220 225 237 264 177 176 179 167 153 151 169 179 190 203 208 194 174 168 151 139 137 131 133 137 141 161 184 153 69 65 122 126 125 113 100 101 107 107 109 111 113 115 116 121 123 128 131 130 133 137 136 139 142 143 150 155 161 174 170 148 156 167 164 154 153 145 42 5 358 353 351 346 340 337 335 328 324 334 342 339 343 344 342 344 349 347 341 336
218 202 148 98 102 129 134 131 131 160 186 187 188 189 183 173 149 141 136 129 127 130 142 148 158 195 220 261 308 135 130 121 121 114 109 112 112 112 113 112 112 113 115 118 121 127 130 129 134 137 136 140 145 148 156 162 164 165 163 151 147 147 147 143 148 16 347 342 343 344 344 338 333 331 327 324 325 336 344 344 344 343 343 344 345 342 337 334
153 129 106 93 103 120 123 131 166 179 181 172 174 176 163 146 131 124 122 119 123 139 153 159 176 207 244 266 177 143 122 120 127 121 119 120 117 116 114 112 112 112 114 116 120 128 130 131 135 135 135 141 145 149 154 155 153 148 146 146 132 122 121 139 324 336 331 334 342 342 340 331 328 326 322 323 327 332 339 341 342 343 344 345 343 338 335 333
148 161 209 154 144 146 155 170 177 174 164 159 166 161 140 130 124 115 113 117 130 150 167 179 192 211 226 179 151 133 116 131 132 127 125 123 120 119 115 113 112 111 114 116 120 126 129 133 134 134 137 141 141 144 147 144 140 135 133 133 112 77 340 320 318 323 326 332 337 336 331 325 322 321 320 323 326 329 336 339 340 343 345 344 340 336 334 333
163 182 188 183 172 170 170 165 163 160 150 154 157 137 120 123 122 115 117 124 135 151 175 184 191 192 175 167 164 136 131 136 134 130 128 125 123 120 116 114 111 109 112 114 117 120 126 131 131 134 136 136 137 139 141 141 140 130 121 119 357 333 319 318 320 324 328 329 331 328 325 323 319 319 321 323 328 331 336 339 338 340 342 341 337 335 334 334
163 176 183 184 183 177 164 150 148 149 150 152 138 115 115 123 124 122 122 123 129 141 158 168 178 184 186 184 170 147 140 138 136 134 129 127 124 121 117 115 113 111 111 113 116 118 125 130 131 134 133 130 132 135 138 151 162 139 128 47 325 327 325 326 328 329 330 329 328 325 322 324 318 320 328 328 333 335 335 338 336 335 336 336 335 334 336 339
158 173 178 173 175 171 147 140 144 147 146 136 117 113 122 125 126 126 122 120 123 128 150 163 168 178 179 158 149 147 142 138 140 137 132 128 124 120 119 115 113 113 112 114 118 123 131 132 131 131 128 128 133 139 155 259 297 274 301 326 330 329 329 332 336 335 336 332 331 327 321 322 318 323 337 336 336 338 335 335 332 328 330 333 335 335 339 344
157 163 162 162 163 157 152 150 145 139 131 119 110 117 125 128 131 132 127 127 125 127 146 150 156 165 157 146 143 145 144 143 145 141 134 128 123 121 118 115 112 110 113 116 119 125 131 131 131 130 124 128 131 151 200 310 317 315 329 336 332 330 334 342 344 338 338 335 331 327 319 320 326 329 340 340 336 337 333 331 327 324 329 334 338 341 344 349
153 154 153 155 156 157 154 145 134 125 118 112 111 115 123 130 133 133 131 130 126 134 144 144 147 154 153 145 140 145 147 146 145 142 136 129 126 122 117 115 112 111 118 122 126 131 133 131 132 132 138 143 118 278 235 322 329 336 340 335 327 325 342 353 349 341 339 336 331 330 323 325 341 335 338 341 334 333 331 328 327 328 334 341 343 344 349 354
148 147 149 149 150 148 141 131 123 117 114 112 113 115 119 123 126 130 130 128 128 137 146 143 139 145 153 145 138 144 146 144 144 141 135 132 129 122 117 118 115 120 127 129 136 138 137 137 127 112 141 165 342 328 261 331 347 352 339 333 331 333 355 355 350 344 340 335 331 335 330 330 344 337 332 337 330 328 329 329 332 333 338 345 346 345 351 357
138 139 141 140 139 135 127 123 121 118 115 113 115 116 118 121 125 128 126 129 136 145 148 143 138 145 155 143 135 140 143 144 144 139 136 136 133 125 122 123 121 130 141 141 146 145 142 137 106 91 46 249 23 16 359 358 6 356 346 351 354 353 350 346 343 342 341 336 327 327 322 322 341 345 325 328 325 319 326 331 333 335 339 348 351 348 350 356
126 127 128 129 128 125 123 123 122 117 114 115 117 116 120 125 128 133 136 141 151 157 149 143 141 146 148 139 133 139 145 146 144 141 141 140 134 128 127 128 132 151 160 152 169 188 167 5 51 58 306 23 26 343 348 17 25 10 2 357 359 352 337 334 335 335 336 332 322 316 313 313 325 341 321 319 317 310 320 331 329 333 342 350 355 353 350 352
116 118 120 122 124 123 124 124 120 115 115 116 116 117 122 127 132 137 138 141 148 151 143 135 134 136 137 136 137 144 150 150 149 149 146 141 136 136 139 143 161 188 188 177 216 244 310 345 6 301 280 19 347 331 345 19 27 16 1 343 342 342 330 326 329 332 328 320 311 301 304 307 307 316 316 310 306 302 312 324 322 329 344 351 355 356 351 350
112 115 117 121 124 124 123 120 116 113 114 117 120 126 129 129 130 127 128 130 133 138 138 133 130 131 134 138 143 152 160 159 158 156 151 147 147 153 162 173 193 215 225 231 246 274 313 315 310 303 299 6 340 350 26 37 25 347 346 330 319 328 323 318 323 326 316 307 297 289 295 295 289 299 308 300 294 296 307 316 313 316 328 348 355 354 351 349
111 114 117 121 122 119 118 115 113 112 115 120 125 131 130 126 123 124 128 131 136 141 140 137 132 131 141 144 150 163 168 168 169 166 162 165 166 173 185 196 216 242 257 260 260 276 296 300 311 323 12 30 352 8 42 109 210 281 313 299 303 323 317 312 322 321 310 302 292 287 292 286 280 292 302 301 286 288 302 314 309 305 304 321 352 349 346 344
111 114 116 119 118 115 115 113 112 114 117 121 126 131 128 122 121 122 129 137 142 140 144 147 137 140 156 153 157 166 171 177 178 177 177 185 187 191 207 222 240 251 262 266 256 263 294 309 331 24 54 65 61 12 25 225 242 275 299 298 307 322 307 307 321 317 311 307 298 292 295 300 299 293 297 309 308 287 301 315 310 306 304 307 321 331 327 325
111 114 116 117 116 115 115 114 114 116 119 122 126 127 123 123 124 118 121 140 153 155 161 160 139 143 156 152 156 164 176 184 185 188 190 197 204 214 225 231 239 239 247 261 250 271 340 24 63 62 65 75 28 323 315 283 287 301 314 319 317 313 302 308 319 315 312 311 307 303 303 308 307 290 290 307 316 296 301 313 311 307 306 307 307 306 301 298
114 116 117 118 119 120 120 120 119 118 117 122 126 123 123 128 129 120 104 124 168 162 160 156 136 143 151 150 157 166 171 175 186 192 196 207 210 209 218 229 235 230 227 211 131 54 34 50 69 63 49 41 344 327 320 312 321 320 323 324 314 311 312 315 319 318 315 313 312 308 310 315 300 288 293 309 311 301 305 313 311 307 304 305 305 302 302 300
119 120 121 123 125 126 128 127 124 121 115 118 119 112 116 121 128 123 96 91 138 139 140 141 140 146 149 148 153 156 142 130 142 155 158 179 184 192 206 218 214 199 156 111 94 77 56 45 61 57 33 22 343 323 320 320 324 322 325 322 312 317 321 317 319 321 315 314 314 309 312 319 289 292 312 319 311 305 309 312 310 308 306 305 306 305 306 308
126 126 126 128 129 130 131 129 127 127 121 121 120 112 109 111 116 112 92 89 117 120 129 137 142 145 145 145 143 137 125 109 114 115 113 127 138 155 166 175 176 144 102 88 58 63 58 36 53 41 14 351 324 321 324 319 318 324 332 329 323 327 323 314 317 321 316 314 314 309 313 314 292 320 334 323 314 309 309 312 313 315 313 311 313 314 313 314
130 130 130 131 132 132 131 128 130 130 128 130 125 116 108 103 101 96 92 101 114 120 131 137 141 141 140 140 129 126 128 124 129 122 115 123 128 135 139 145 137 103 86 79 42 54 80 35 15 1 344 327 318 323 324 318 327 343 345 338 330 328 323 316 316 318 314 311 311 318 323 315 316 345 343 316 301 309 314 318 324 327 324 321 322 322 320 319
134 135 136 134 133 131 127 130 133 130 130 132 125 116 107 102 97 93 98 101 107 124 137 135 135 132 133 137 130 135 143 133 128 128 125 131 138 138 130 123 114 97 89 97 74 76 81 342 340 338 324 318 318 325 327 327 345 352 342 335 331 327 325 320 317 317 315 311 321 336 344 325 311 332 340 316 294 313 325 323 327 330 325 324 323 321 320 317
139 140 141 139 135 132 134 137 137 133 129 126 122 118 110 104 100 102 100 25 171 163 158 151 153 145 139 140 137 137 136 127 118 118 118 121 124 121 118 110 102 105 107 114 139 99 32 338 329 327 321 324 326 328 331 338 346 345 335 332 329 327 328 324 319 317 315 312 323 333 339 300 310 322 328 318 314 328 334 325 320 325 325 323 320 316 315 310
141 142 142 142 139 141 145 144 142 140 135 130 127 123 118 112 108 111 42 315 234 210 203 191 195 182 164 159 152 139 119 123 112 104 108 107 106 101 103 103 96 106 112 97 263 289 344 347 337 332 334 334 332 328 333 341 342 338 333 327 324 326 328 326 321 317 307 310 317 320 313 302 309 317 308 312 324 328 331 324 312 321 329 326 321 319 316 312
138 138 140 144 145 148 151 150 150 152 151 155 157 143 130 131 142 249 308 318 228 215 215 210 212 194 174 175 190 228 179 148 113 102 108 93 99 98 92 95 86 74 75 17 340 315 320 354 348 342 340 334 336 342 341 342 338 332 329 325 323 324 324 321 318 316 310 314 314 305 325 316 304 305 281 285 317 326 332 335 326 327 336 336 330 325 320 318
129 132 140 146 150 154 158 158 160 164 169 186 193 191 193 219 276 284 276 280 228 211 208 206 202 187 177 181 195 181 169 170 162 140 125 96 103 102 87 87 77 57 45 23 20 36 9 352 352 344 339 337 343 348 345 343 337 331 329 327 325 321 320 315 308 311 313 313 278 250 325 339 309 307 287 281 321 331 331 335 335 332 337 340 338 332 326 324
129 137 149 154 157 160 162 164 168 177 189 201 206 217 235 252 279 286 233 271 267 218 201 196 189 183 180 185 179 161 166 166 132 129 120 102 102 97 88 71 67 57 40 30 26 12 351 347 346 340 340 345 349 349 347 343 337 336 333 329 327 320 314 301 292 309 322 320 224 211 320 338 317 324 294 288 324 331 324 328 339 337 338 339 339 337 333 330
151 161 164 162 161 161 164 172 181 190 204 212 216 229 241 251 259 244 231 299 289 214 198 195 189 186 187 194 193 181 170 152 123 120 103 93 86 76 80 57 50 78 33 30 18 2 360 344 334 333 335 342 349 351 347 342 339 343 338 332 332 326 317 294 292 321 354 323 192 209 325 321 259 243 287 296 322 328 324 337 345 345 345 345 345 343 338 335
171 175 169 159 157 161 165 181 203 208 220 230 235 241 247 252 246 245 262 294 291 205 196 193 192 193 200 210 206 192 182 176 164 172 118 101 82 66 75 55 35 354 359 15 4 353 353 342 337 336 331 336 346 351 350 346 344 344 341 342 345 346 347 332 316 346 97 174 311 324 326 314 261 278 289 307 325 328 342 349 350 351 352 353 352 348 344 339
178 178 168 166 166 173 179 195 233 245 251 249 253 250 241 235 239 259 272 269 284 246 203 196 199 199 204 219 216 204 204 211 216 212 174 124 99 68 70 50 38 30 356 348 340 348 351 350 360 346 331 330 339 348 353 348 344 346 360 10 19 45 17 334 332 358 3 308 318 319 318 306 312 307 296 312 319 321 345 352 356 359 358 356 354 352 348 343
202 198 190 201 198 193 245 315 300 287 275 260 258 250 234 237 265 287 285 262 273 278 214 203 210 208 209 222 219 214 221 225 223 212 201 182 135 67 53 41 37 19 355 334 331 358 345 323 344 342 333 329 334 345 350 344 345 2 14 27 49 74 81 264 318 328 275 298 307 305 299 317 331 325 309 305 297 312 350 358 360 359 358 356 352 350 349 343
231 227 221 222 225 294 322 318 301 283 275 264 259 252 239 250 283 291 288 267 261 261 221 207 212 213 213 217 215 218 222 223 220 215 226 235 238 318 350 3 1 359 6 358 315 341 322 294 327 336 330 330 330 336 343 345 355 9 10 31 40 35 34 284 286 273 281 305 303 280 284 315 321 318 311 291 262 303 347 358 358 353 351 352 348 345 345 342
243 244 245 247 268 303 295 287 280 270 267 264 262 259 251 258 281 287 289 275 254 240 215 205 210 216 216 216 215 217 220 223 220 223 242 255 262 278 285 313 330 336 347 344 329 328 310 293 310 326 327 331 331 329 334 343 348 339 352 28 15 10 356 315 296 277 285 310 304 289 301 312 317 315 303 255 260 300 329 348 350 344 341 345 344 339 337 339
255 260 265 274 281 283 275 269 269 265 264 264 264 268 265 267 275 280 285 273 241 221 209 206 209 214 216 219 219 219 222 224 226 233 250 259 260 265 260 285 313 317 326 336 313 310 314 300 295 307 312 326 330 324 323 336 337 324 317 331 342 349 5 355 326 299 301 284 294 294 293 304 314 314 289 266 277 290 307 331 341 337 334 336 337 335 332 334
262 269 272 273 269 266 264 262 264 263 263 265 267 272 274 276 279 278 276 253 220 212 209 206 209 213 216 225 222 216 219 225 233 242 250 253 249 250 256 279 298 297 306 323 305 310 318 308 293 287 300 331 331 323 322 329 328 324 311 306 323 318 353 17 4 325 333 304 300 289 289 305 311 308 302 289 285 289 296 312 332 331 327 328 331 332 329 327
254 259 258 256 253 253 255 256 262 266 266 269 271 274 277 283 284 276 263 238 224 224 212 206 215 224 221 227 223 217 223 231 236 237 238 246 248 256 269 280 286 278 279 300 305 309 313 308 297 282 300 324 325 318 321 322 321 323 308 286 299 280 277 322 308 253 205 278 306 306 304 310 305 297 304 297 293 298 299 304 323 327 323 323 326 328 326 323
243 246 245 244 245 247 251 255 261 267 271 275 275 278 283 288 288 274 255 238 233 229 212 208 218 231 224 222 222 224 229 236 242 243 246 257 272 286 283 278 276 270 276 292 299 304 302 288 280 288 302 316 317 307 314 318 316 313 299 278 277 260 266 308 295 250 221 240 303 330 294 292 293 289 287 284 289 300 302 302 316 323 321 320 322 325 325 322
239 243 242 241 245 248 252 256 261 267 272 277 280 284 285 284 285 275 254 239 227 219 214 214 218 230 235 227 227 232 234 240 247 251 257 265 275 286 281 275 277 274 281 290 293 297 295 280 279 292 303 309 306 299 303 309 306 302 299 284 274 260 269 311 306 248 231 239 260 255 280 298 320 314 282 287 301 304 300 301 313 322 321 318 319 323 323 320
241 245 246 246 248 251 255 257 261 265 268 274 280 283 283 281 281 275 255 239 228 220 219 221 223 233 245 242 237 237 240 248 253 255 261 267 269 270 270 277 283 281 284 289 290 291 291 287 287 294 305 309 303 298 295 292 290 293 290 282 282 265 257 256 244 253 247 250 260 239 259 294 322 337 278 314 322 311 301 302 311 317 317 314 315 318 319 317
251 253 253 252 253 255 258 259 260 263 267 273 276 276 277 278 277 271 258 244 239 234 228 228 230 236 245 247 245 244 246 254 257 258 261 264 266 268 270 275 281 283 285 286 288 292 293 291 292 301 312 307 296 290 283 272 269 277 293 294 286 275 271 263 261 269 267 256 254 230 245 283 307 325 308 316 313 308 305 305 310 314 313 310 312 314 314 312
268 267 265 263 265 264 262 263 262 264 268 270 270 271 272 275 275 272 263 252 247 244 240 239 240 241 245 248 251 253 251 255 263 265 263 263 266 270 272 276 280 280 281 283 285 291 290 284 288 305 320 315 296 278 245 251 276 287 293 293 286 282 275 266 267 270 270 267 252 208 235 271 276 287 303 309 306 304 306 306 310 314 311 309 311 311 310 308
284 281 278 273 272 270 266 266 266 267 267 266 266 267 268 271 275 273 266 258 252 250 249 249 250 249 251 253 255 257 256 257 263 267 268 268 270 272 273 275 276 277 280 283 285 287 283 280 282 285 278 255 268 266 262 282 292 291 291 291 287 284 274 269 267 253 255 267 246 226 259 284 292 295 300 306 306 306 308 307 308 310 307 306 308 307 305 304
293 287 283 280 278 274 269 268 268 267 266 265 267 268 268 270 272 271 267 262 258 257 256 256 257 256 257 258 259 262 262 261 261 265 270 272 273 274 273 274 277 280 281 283 285 284 282 284 284 275 265 265 272 276 281 286 289 290 293 292 288 286 280 269 252 244 261 273 264 264 278 292 301 307 310 315 315 313 310 303 299 299 300 302 304 305 305 306
297 290 286 285 282 278 275 275 273 270 268 268 268 269 270 273 273 271 268 264 262 262 262 261 260 260 262 263 264 264 264 264 264 266 270 273 274 274 273 275 277 278 281 283 283 282 282 285 286 283 282 282 281 282 284 286 288 289 291 291 288 289 283 271 261 266 275 271 271 283 291 295 303 316 327 328 323 315 306 296 291 293 296 299 303 308 310 309
299 292 288 285 278 274 278 282 282 281 279 276 274 274 274 275 274 273 270 267 266 264 265 265 265 265 266 265 265 266 267 269 269 270 272 273 273 272 272 274 275 277 280 281 282 283 282 284 287 287 288 288 287 287 287 287 289 289 289 290 289 286 283 278 277 283 278 265 274 291 295 294 304 324 338 328 315 308 302 295 295 296 294 295 304 312 313 311
299 294 292 288 282 279 281 283 283 283 282 281 280 280 279 278 276 273 270 270 269 268 268 270 270 268 267 265 264 265 267 270 271 273 274 274 272 272 273 274 275 278 280 280 281 283 281 283 288 291 292 293 291 289 289 289 289 290 290 291 288 286 285 283 285 288 279 272 282 295 294 294 310 327 326 317 309 304 300 296 297 296 292 296 306 311 313 311
296 295 293 289 286 285 284 284 284 284 283 283 283 282 281 280 277 274 272 272 272 272 271 272 269 266 265 264 264 266 268 270 271 272 272 272 272 273 274 276 277 279 281 281 281 281 280 282 289 293 294 294 294 294 294 294 294 293 293 292 291 290 287 283 286 288 279 280 295 300 289 296 319 327 317 313 309 300 295 293 294 296 303 308 310 311 311 310
295 293 291 288 287 286 284 284 284 283 284 284 284 283 282 280 278 276 275 274 274 274 273 272 270 267 267 267 268 269 270 269 269 270 270 271 273 273 274 276 277 278 280 280 281 283 282 283 290 295 295 295 298 299 298 298 298 296 296 299 297 290 285 285 294 299 292 295 302 292 287 304 326 323 309 308 305 298 295 296 297 305 310 313 314 313 311 311
291 289 288 287 286 285 285 284 283 283 283 283 282 282 280 280 278 277 276 275 275 274 273 272 270 269 270 270 269 270 270 269 270 271 272 273 274 275 275 277 278 279 279 279 280 282 283 284 288 291 291 293 296 297 299 303 303 298 300 307 305 287 298 305 304 304 302 299 295 290 298 316 325 317 310 310 306 302 305 310 312 313 314 315 316 314 312 313
Height
3132 3133 3134 3135 3135 3135 3136 3137 3139 3141 3143 3144 3145 3146 3147 3148 3148 3148 3148 3148 3148 3148 3148 3148 3148 3148 3148 3148 3148 3148 3148 3147 3147 3147 3146 3147 3147 3147 3147 3147 3147 3147 3148 3149 3149 3150 3151 3152 3153 3154 3155 3156 3157 3158 3159 3159 3160 3161 3162 3163 3164 3163 3162 3163 3163 3163 3163 3164 3164 3164 3164 3164 3163 3163 3162 3162 3161 3161 3160 3160 3160 3159 3159 3158 3157 3157 3156 3155
3132 3133 3134 3134 3134 3134 3135 3137 3139 3141 3143 3144 3145 3146 3147 3148 3148 3148 3148 3148 3148 3148 3148 3148 3148 3148 3149 3149 3149 3149 3148 3147 3148 3148 3147 3147 3147 3147 3148 3148 3148 3149 3150 3150 3151 3152 3152 3152 3154 3155 3156 3157 3158 3159 3160 3160 3161 3162 3162 3163 3163 3163 3163 3163 3164 3164 3164 3164 3164 3164 3164 3164 3163 3163 3162 3162 3161 3161 3160 3160 3159 3159 3158 3158 3157 3157 3156 3155
3132 3132 3133 3133 3134 3134 3134 3136 3138 3140 3143 3144 3145 3146 3147 3147 3147 3147 3147 3147 3147 3147 3148 3148 3148 3149 3149 3150 3149 3149 3148 3148 3149 3148 3148 3148 3148 3149 3149 3149 3150 3150 3151 3152 3152 3154 3154 3154 3155 3156 3157 3158 3159 3160 3161 3161 3162 3163 3162 3162 3163 3163 3164 3164 3164 3164 3164 3164 3164 3164 3164 3163 3163 3162 3162 3161 3160 3160 3160 3159 3159 3158 3157 3157 3157 3157 3156 3155
3132 3133 3133 3133 3133 3134 3135 3136 3138 3141 3143 3145 3145 3146 3146 3146 3146 3147 3146 3146 3147 3147 3148 3148 3149 3150 3150 3150 3150 3149 3149 3149 3149 3149 3149 3149 3150 3150 3151 3151 3151 3152 3152 3153 3154 3155 3155 3156 3156 3157 3158 3159 3160 3161 3162 3162 3163 3163 3163 3163 3163 3164 3164 3164 3164 3164 3164 3164 3164 3164 3163 3163 3162 3162 3161 3161 3160 3160 3160 3159 3158 3157 3157 3157 3157 3156 3155 3154
3134 3135 3135 3135 3135 3135 3136 3138 3140 3142 3144 3144 3145 3145 3145 3146 3146 3146 3146 3146 3147 3147 3148 3149 3149 3150 3150 3150 3150 3150 3150 3150 3150 3150 3150 3151 3151 3152 3152 3152 3153 3153 3154 3154 3155 3156 3156 3157 3158 3158 3159 3160 3160 3161 3162 3163 3163 3163 3164 3164 3164 3164 3164 3165 3165 3165 3164 3164 3164 3164 3163 3162 3162 3161 3161 3160 3160 3159 3159 3159 3158 3157 3157 3157 3156 3156 3155 3154
3135 3136 3135 3136 3137 3138 3138 3139 3141 3143 3143 3143 3144 3144 3145 3145 3145 3145 3145 3146 3147 3148 3148 3149 3150 3150 3150 3150 3150 3150 3150 3150 3151 3151 3151 3152 3152 3153 3153 3154 3154 3155 3155 3156 3156 3157 3157 3157 3158 3159 3160 3161 3161 3162 3162 3163 3163 3164 3164 3164 3165 3165 3165 3165 3165 3165 3165 3164 3164 3163 3163 3162 3162 3161 3161 3160 3160 3159 3159 3159 3158 3158 3157 3157 3156 3156 3154 3153
3135 3135 3136 3137 3138 3139 3140 3141 3142 3142 3143 3143 3144 3144 3144 3144 3144 3145 3145 3146 3147 3148 3149 3149 3150 3150 3150 3150 3150 3150 3150 3151 3152 3152 3153 3153 3154 3154 3155 3155 3156 3156 3156 3157 3158 3158 3158 3158 3159 3160 3161 3161 3162 3162 3163 3164 3164 3164 3164 3165 3165 3165 3165 3165 3165 3165 3165 3164 3163 3163 3162 3162 3161 3161 3160 3160 3160 3159 3159 3158 3158 3158 3157 3157 3157 3155 3154 3153
3135 3136 3137 3137 3139 3140 3141 3141 3142 3142 3142 3143 3143 3143 3143 3144 3144 3145 3146 3147 3148 3149 3149 3150 3150 3150 3150 3150 3151 3151 3151 3152 3153 3153 3154 3154 3155 3155 3156 3156 3156 3157 3157 3158 3158 3159 3159 3160 3160 3161 3162 3162 3162 3163 3164 3164 3164 3164 3165 3165 3165 3165 3165 3165 3165 3165 3164 3164 3163 3162 3162 3161 3160 3160 3160 3159 3159 3159 3158 3158 3158 3157 3157 3157 3156 3155 3153 3152
3136 3136 3137 3138 3139 3139 3140 3141 3141 3142 3142 3143 3143 3143 3143 3144 3145 3146 3147 3148 3149 3149 3150 3150 3151 3151 3151 3151 3151 3151 3152 3153 3154 3154 3155 3155 3156 3156 3156 3157 3157 3157 3158 3159 3159 3160 3161 3161 3162 3162 3162 3162 3163 3164 3164 3165 3165 3165 3165 3165 3165 3165 3165 3165 3165 3164 3164 3163 3162 3162 3161 3161 3160 3159 3159 3159 3159 3158 3158 3158 3158 3157 3157 3156 3155 3154 3153 3151
3137 3137 3138 3138 3138 3139 3140 3140 3141 3142 3143 3143 3143 3143 3144 3145 3146 3147 3148 3149 3149 3150 3150 3150 3151 3151 3151 3151 3152 3152 3153 3154 3155 3155 3155 3156 3156 3157 3157 3158 3158 3158 3159 3160 3160 3161 3162 3162 3163 3163 3163 3163 3164 3164 3164 3165 3165 3165 3165 3165 3165 3165 3165 3165 3164 3164 3163 3162 3162 3161 3160 3160 3160 3159 3159 3159 3158 3158 3158 3158 3157 3157 3156 3156 3155 3154 3152 3151
3137 3138 3138 3139 3139 3139 3140 3141 3142 3142 3143 3143 3143 3144 3145 3146 3147 3148 3149 3149 3150 3150 3150 3151 3151 3151 3151 3152 3152 3153 3154 3154 3155 3156 3156 3156 3157 3158 3158 3158 3159 3160 3160 3161 3161 3162 3162 3163 3163 3163 3163 3163 3164 3164 3164 3165 3165 3165 3165 3165 3165 3165 3165 3164 3164 3163 3163 3162 3161 3161 3160 3159 3159 3158 3158 3158 3158 3157 3157 3157 3157 3156 3156 3155 3154 3153 3152 3151
3138 3139 3139 3140 3140 3140 3141 3141 3142 3142 3143 3144 3144 3145 3146 3147 3148 3149 3149 3150 3150 3150 3151 3151 3152 3152 3152 3153 3153 3154 3155 3155 3156 3156 3157 3157 3158 3158 3159 3159 3160 3161 3161 3162 3162 3162 3163 3163 3163 3163 3163 3164 3164 3164 3164 3165 3165 3164 3164 3164 3164 3164 3164 3164 3163 3163 3162 3162 3161 3160 3159 3158 3158 3158 3157 3157 3157 3157 3157 3156 3156 3156 3156 3155 3154 3153 3152 3151
3139 3140 3140 3140 3141 3141 3141 3141 3142 3143 3143 3144 3145 3146 3147 3148 3149 3150 3150 3150 3151 3151 3152 3152 3152 3153 3153 3153 3154 3154 3155 3156 3156 3157 3157 3158 3159 3159 3160 3160 3161 3161 3162 3163 3163 3163 3163 3163 3163 3164 3164 3164 3164 3164 3164 3164 3164 3164 3164 3164 3164 3164 3164 3163 3163 3162 3162 3161 3161 3160 3158 3158 3158 3157 3157 3157 3156 3156 3156 3156 3156 3156 3155 3154 3154 3153 3152 3151
3140 3140 3140 3141 3141 3141 3142 3142 3143 3143 3144 3145 3146 3147 3148 3149 3149 3150 3151 3151 3152 3152 3153 3153 3153 3153 3154 3154 3154 3155 3156 3156 3157 3157 3158 3159 3159 3160 3160 3161 3161 3162 3162 3163 3163 3163 3163 3163 3163 3164 3164 3164 3164 3164 3164 3164 3164 3164 3164 3164 3163 3163 3163 3163 3162 3162 3162 3161 3160 3159 3158 3157 3157 3157 3156 3156 3156 3155 3155 3155 3155 3154 3154 3153 3153 3152 3151 3150
3140 3140 3141 3141 3141 3142 3142 3143 3144 3144 3145 3146 3147 3148 3149 3150 3150 3151 3151 3152 3153 3153 3153 3153 3153 3154 3154 3155 3155 3156 3156 3157 3158 3158 3159 3159 3160 3160 3161 3161 3162 3162 3163 3163 3163 3163 3163 3163 3163 3164 3164 3164 3164 3164 3164 3164 3163 3163 3163 3163 3163 3163 3162 3163 3162 3161 3161 3161 3160 3159 3158 3157 3156 3156 3156 3155 3155 3154 3154 3154 3154 3153 3153 3152 3151 3151 3150 3149
3140 3141 3141 3142 3142 3143 3144 3145 3145 3145 3146 3148 3149 3149 3150 3151 3151 3152 3152 3153 3153 3154 3154 3153 3154 3154 3155 3155 3156 3157 3157 3158 3158 3159 3159 3159 3160 3160 3161 3161 3162 3162 3163 3163 3163 3163 3163 3163 3163 3164 3164 3164 3164 3163 3163 3163 3163 3163 3163 3163 3163 3163 3162 3162 3162 3161 3160 3160 3159 3158 3157 3157 3155 3155 3155 3155 3154 3153 3153 3153 3152 3152 3151 3151 3150 3150 3149 3149
3141 3141 3142 3143 3144 3144 3145 3146 3146 3147 3148 3149 3150 3150 3151 3152 3152 3152 3153 3153 3154 3154 3154 3154 3154 3155 3155 3156 3157 3158 3158 3158 3159 3159 3159 3160 3160 3161 3161 3161 3162 3162 3163 3163 3163 3163 3163 3163 3163 3163 3163 3163 3163 3163 3163 3162 3163 3163 3163 3163 3163 3163 3162 3161 3161 3161 3160 3159 3159 3158 3157 3157 3155 3154 3154 3154 3153 3152 3152 3152 3151 3151 3150 3149 3149 3149 3148 3148
3142 3142 3143 3144 3145 3145 3146 3147 3147 3148 3149 3150 3151 3151 3152 3152 3153 3153 3154 3154 3154 3155 3155 3155 3155 3156 3156 3157 3157 3158 3159 3159 3159 3159 3160 3160 3160 3161 3161 3161 3162 3162 3162 3163 3163 3163 3163 3163 3163 3163 3163 3163 3163 3163 3163 3162 3163 3163 3163 3163 3162 3162 3161 3161 3161 3160 3159 3158 3158 3157 3156 3156 3155 3153 3153 3153 3153 3152 3151 3151 3151 3150 3149 3148 3148 3148 3147 3147
3143 3143 3144 3145 3145 3146 3147 3148 3148 3149 3150 3151 3152 3153 3153 3153 3154 3154 3155 3155 3155 3155 3156 3156 3156 3156 3157 3157 3158 3159 3159 3159 3159 3160 3160 3160 3160 3161 3161 3161 3161 3162 3162 3163 3163 3163 3163 3163 3163 3163 3163 3163 3163 3163 3163 3163 3163 3163 3163 3162 3162 3161 3160 3160 3160 3159 3158 3157 3157 3156 3155 3155 3154 3153 3152 3152 3152 3152 3151 3151 3150 3150 3149 3148 3147 3147 3146 3146
3144 3144 3145 3146 3147 3147 3148 3149 3150 3151 3152 3152 3153 3153 3154 3154 3154 3155 3155 3156 3156 3156 3156 3157 3157 3157 3157 3158 3158 3159 3159 3159 3160 3160 3160 3160 3160 3160 3161 3161 3161 3162 3162 3163 3162 3162 3162 3162 3162 3163 3163 3163 3163 3163 3163 3163 3162 3162 3162 3161 3161 3161 3160 3159 3160 3159 3157 3156 3155 3155 3154 3154 3153 3153 3152 3151 3151 3151 3150 3150 3149 3149 3149 3148 3147 3146 3145 3145
3145 3146 3147 3147 3148 3149 3150 3150 3151 3152 3153 3153 3154 3154 3154 3155 3155 3156 3156 3156 3157 3157 3157 3157 3157 3157 3158 3158 3158 3159 3159 3159 3160 3160 3160 3160 3160 3160 3161 3161 3161 3162 3162 3162 3162 3162 3162 3162 3162 3163 3163 3163 3163 3163 3162 3162 3162 3162 3161 3161 3160 3160 3159 3159 3159 3158 3157 3156 3155 3154 3153 3153 3152 3151 3151 3151 3150 3150 3150 3149 3149 3148 3148 3148 3147 3146 3145 3144
3146 3147 3148 3149 3150 3151 3152 3152 3153 3154 3154 3154 3155 3155 3155 3156 3156 3157 3157 3157 3157 3157 3157 3157 3158 3158 3158 3159 3159 3159 3159 3159 3160 3160 3160 3160 3160 3160 3161 3161 3162 3162 3162 3161 3161 3162 3162 3162 3162 3163 3163 3162 3162 3162 3162 3162 3161 3161 3160 3160 3159 3159 3158 3158 3158 3157 3156 3155 3154 3153 3152 3152 3151 3150 3150 3150 3150 3150 3149 3149 3148 3148 3147 3147 3146 3146 3145 3144
3148 3148 3149 3150 3151 3152 3153 3153 3154 3154 3155 3155 3155 3156 3156 3157 3157 3157 3157 3158 3158 3157 3158 3158 3158 3159 3159 3159 3159 3159 3160 3160 3160 3160 3160 3160 3160 3161 3161 3161 3161 3161 3161 3161 3161 3162 3162 3162 3162 3162 3162 3162 3162 3162 3161 3161 3161 3160 3160 3159 3159 3159 3158 3157 3157 3156 3155 3154 3153 3152 3151 3150 3150 3150 3149 3149 3149 3149 3149 3149 3148 3147 3146 3146 3145 3145 3144 3144
3149 3150 3150 3151 3152 3153 3153 3154 3155 3155 3156 3156 3156 3157 3157 3157 3158 3158 3158 3159 3158 3158 3159 3159 3159 3159 3159 3160 3160 3160 3160 3160 3160 3160 3161 3161 3161 3161 3161 3161 3161 3161 3161 3161 3162 3162 3162 3162 3162 3162 3162 3162 3162 3161 3161 3161 3160 3159 3159 3159 3158 3158 3158 3156 3155 3155 3154 3153 3153 3152 3150 3149 3149 3149 3149 3149 3149 3149 3149 3148 3148 3147 3146 3145 3144 3144 3143 3142
3150 3151 3151 3152 3153 3153 3154 3155 3155 3156 3157 3157 3157 3158 3158 3158 3158 3159 3159 3159 3159 3159 3159 3160 3160 3160 3160 3160 3160 3160 3160 3160 3161 3161 3161 3161 3161 3161 3161 3161 3161 3161 3161 3162 3162 3162 3162 3162 3162 3162 3162 3161 3161 3161 3161 3160 3159 3159 3158 3158 3158 3157 3157 3156 3154 3154 3153 3153 3152 3152 3150 3149 3149 3149 3149 3149 3149 3148 3148 3148 3147 3146 3145 3144 3144 3143 3142 3141
3151 3152 3153 3153 3154 3154 3155 3156 3156 3157 3158 3158 3158 3158 3159 3159 3159 3160 3160 3160 3159 3160 3160 3160 3160 3160 3160 3161 3161 3161 3161 3161 3161 3161 3161 3161 3161 3161 3161 3161 3161 3161 3161 3162 3162 3162 3162 3162 3162 3161 3161 3161 3161 3161 3160 3160 3159 3158 3158 3158 3157 3157 3156 3155 3154 3153 3153 3153 3152 3152 3152 3150 3148 3148 3148 3148 3148 3148 3148 3147 3146 3145 3144 3144 3143 3142 3141 3140
3152 3153 3154 3154 3155 3155 3156 3157 3157 3158 3158 3159 3159 3159 3159 3160 3160 3160 3160 3160 3159 3160 3160 3160 3160 3160 3161 3161 3161 3161 3161 3161 3161 3161 3161 3161 3161 3161 3161 3161 3161 3161 3162 3162 3162 3162 3162 3162 3161 3161 3161 3161 3161 3160 3160 3159 3159 3158 3158 3157 3157 3156 3155 3154 3153 3153 3153 3153 3152 3152 3152 3151 3148 3147 3148 3148 3148 3148 3147 3146 3146 3145 3144 3143 3142 3141 3140 3139
3153 3154 3154 3155 3156 3156 3157 3158 3158 3158 3159 3159 3160 3160 3160 3160 3161 3161 3161 3160 3159 3159 3160 3160 3160 3161 3161 3161 3161 3161 3161 3161 3161 3161 3161 3161 3161 3161 3161 3162 3162 3162 3162 3162 3161 3161 3162 3162 3161 3161 3161 3161 3161 3160 3159 3159 3158 3158 3157 3157 3156 3155 3154 3154 3153 3153 3153 3152 3152 3152 3152 3151 3148 3147 3148 3148 3147 3147 3146 3145 3145 3144 3143 3143 3142 3140 3140 3139
3154 3154 3155 3156 3156 3157 3158 3159 3159 3159 3159 3160 3160 3160 3161 3161 3161 3161 3161 3160 3159 3159 3159 3159 3160 3160 3161 3161 3161 3161 3161 3161 3161 3161 3162 3162 3162 3162 3162 3162 3162 3162 3162 3162 3162 3162 3162 3162 3162 3161 3161 3161 3160 3159 3159 3158 3158 3157 3157 3156 3155 3154 3153 3153 3153 3153 3152 3152 3151 3152 3152 3151 3148 3147 3147 3147 3147 3146 3145 3145 3144 3144 3143 3142 3141 3140 3139 3138
3155 3155 3156 3157 3157 3158 3158 3159 3159 3159 3159 3160 3160 3160 3161 3161 3161 3161 3161 3160 3158 3158 3159 3159 3159 3160 3160 3161 3161 3161 3161 3161 3162 3162 3162 3162 3162 3162 3162 3162 3162 3162 3162 3162 3162 3162 3162 3162 3162 3161 3161 3161 3160 3159 3159 3158 3157 3157 3156 3155 3154 3153 3152 3152 3152 3152 3152 3151 3151 3152 3152 3152 3150 3147 3147 3147 3147 3146 3145 3145 3144 3144 3143 3142 3141 3140 3139 3138
3156 3156 3157 3157 3157 3158 3158 3158 3159 3159 3159 3160 3160 3160 3161 3161 3161 3161 3160 3158 3158 3158 3158 3159 3159 3160 3160 3161 3161 3161 3161 3162 3162 3162 3162 3162 3162 3162 3162 3162 3162 3162 3162 3162 3162 3162 3162 3162 3161 3161 3161 3160 3160 3159 3159 3158 3157 3156 3156 3155 3153 3152 3152 3152 3152 3152 3152 3151 3152 3152 3152 3151 3150 3147 3146 3146 3146 3146 3145 3145 3144 3144 3143 3142 3141 3139 3138 3137
3156 3156 3156 3157 3157 3157 3157 3158 3158 3158 3159 3159 3160 3160 3160 3160 3160 3159 3158 3158 3157 3157 3158 3158 3159 3159 3160 3160 3161 3161 3162 3162 3162 3162 3162 3162 3162 3162 3162 3162 3162 3162 3162 3162 3162 3162 3161 3161 3161 3161 3161 3160 3160 3159 3158 3158 3157 3157 3156 3155 3153 3152 3152 3152 3152 3152 3152 3151 3151 3152 3151 3149 3148 3146 3146 3146 3146 3145 3145 3145 3144 3143 3142 3141 3140 3139 3138 3136
3156 3156 3156 3157 3157 3157 3157 3157 3158 3158 3158 3159 3159 3159 3160 3160 3159 3157 3157 3157 3157 3157 3158 3158 3159 3159 3160 3160 3161 3161 3162 3162 3162 3162 3162 3162 3162 3162 3162 3162 3162 3161 3161 3162 3162 3161 3161 3161 3161 3161 3160 3160 3160 3159 3158 3157 3157 3157 3156 3155 3154 3154 3155 3155 3153 3152 3152 3152 3151 3151 3150 3148 3146 3146 3146 3145 3145 3145 3145 3144 3144 3143 3142 3141 3139 3138 3137 3135
3156 3156 3157 3157 3157 3157 3157 3157 3157 3158 3158 3159 3159 3159 3159 3158 3157 3157 3157 3157 3157 3157 3157 3158 3158 3159 3160 3160 3161 3161 3161 3162 3162 3162 3162 3162 3162 3161 3161 3162 3162 3162 3162 3161 3161 3161 3161 3160 3161 3161 3160 3160 3160 3159 3158 3157 3157 3156 3156 3156 3155 3156 3157 3157 3156 3155 3154 3153 3150 3150 3149 3146 3145 3145 3145 3145 3144 3144 3144 3143 3143 3142 3141 3140 3139 3137 3136 3135
3156 3156 3157 3157 3157 3157 3157 3157 3157 3158 3158 3158 3158 3158 3158 3158 3157 3157 3157 3157 3157 3157 3157 3158 3158 3159 3159 3160 3160 3161 3161 3162 3162 3162 3162 3161 3161 3161 3161 3161 3162 3162 3162 3161 3161 3161 3161 3160 3161 3161 3160 3160 3160 3159 3158 3157 3157 3156 3156 3156 3156 3156 3157 3157 3157 3156 3156 3154 3151 3148 3147 3145 3145 3145 3144 3143 3143 3143 3143 3142 3141 3141 3140 3139 3137 3136 3135 3134
3156 3156 3157 3157 3157 3156 3157 3157 3157 3158 3158 3158 3158 3158 3158 3158 3157 3157 3157 3157 3157 3157 3157 3157 3158 3158 3159 3159 3160 3160 3161 3161 3161 3161 3161 3161 3161 3161 3161 3161 3161 3162 3161 3161 3161 3161 3161 3160 3160 3160 3160 3160 3159 3159 3159 3158 3157 3157 3157 3156 3156 3157 3157 3156 3156 3155 3155 3155 3150 3146 3145 3145 3144 3143 3142 3143 3142 3142 3141 3140 3139 3139 3139 3138 3136 3135 3134 3133
3156 3156 3156 3156 3156 3157 3157 3157 3158 3158 3158 3158 3158 3158 3158 3157 3157 3157 3157 3156 3156 3156 3157 3157 3157 3158 3158 3158 3159 3160 3160 3161 3161 3161 3161 3160 3160 3160 3161 3161 3161 3161 3161 3161 3161 3161 3161 3160 3160 3160 3160 3160 3159 3158 3158 3158 3157 3157 3157 3156 3156 3157 3156 3156 3156 3155 3155 3154 3149 3146 3145 3145 3144 3143 3142 3142 3142 3141 3140 3139 3138 3137 3137 3136 3135 3134 3133 3132
3156 3156 3156 3156 3157 3157 3157 3158 3158 3158 3158 3158 3158 3157 3157 3157 3157 3157 3156 3156 3156 3156 3156 3156 3157 3157 3157 3158 3158 3159 3160 3160 3160 3160 3160 3160 3159 3160 3160 3160 3161 3161 3161 3161 3161 3161 3160 3159 3159 3159 3159 3159 3159 3158 3157 3157 3157 3157 3156 3156 3156 3156 3156 3157 3157 3156 3157 3155 3150 3146 3145 3144 3143 3142 3141 3141 3141 3140 3140 3139 3138 3137 3135 3134 3133 3132 3131 3130
3156 3156 3156 3157 3157 3157 3157 3158 3158 3158 3158 3157 3157 3157 3157 3157 3157 3156 3156 3156 3156 3156 3156 3156 3156 3157 3157 3157 3158 3159 3159 3159 3160 3160 3160 3159 3159 3159 3160 3160 3160 3160 3160 3160 3160 3160 3160 3159 3158 3158 3158 3158 3157 3157 3157 3156 3156 3156 3156 3156 3156 3156 3156 3156 3157 3157 3157 3156 3153 3149 3146 3143 3143 3142 3141 3141 3140 3139 3139 3138 3138 3136 3134 3133 3132 3131 3130 3128
3156 3156 3156 3157 3157 3157 3157 3157 3157 3157 3157 3157 3157 3157 3157 3157 3156 3156 3156 3156 3155 3155 3156 3156 3156 3156 3157 3157 3157 3158 3158 3159 3159 3159 3159 3159 3159 3159 3159 3159 3159 3159 3160 3160 3160 3159 3159 3159 3158 3157 3157 3157 3156 3156 3156 3155 3155 3155 3155 3155 3155 3156 3156 3156 3156 3156 3156 3156 3155 3153 3148 3142 3142 3142 3141 3140 3139 3138 3138 3137 3136 3135 3132 3131 3130 3128 3127 3126
3155 3156 3156 3156 3156 3156 3156 3156 3157 3157 3157 3157 3157 3156 3156 3156 3156 3156 3155 3155 3155 3155 3155 3156 3156 3156 3157 3157 3157 3158 3158 3158 3159 3159 3159 3158 3158 3158 3159 3159 3159 3159 3159 3159 3159 3159 3158 3158 3157 3156 3156 3156 3155 3155 3155 3154 3154 3154 3154 3155 3155 3155 3155 3155 3155 3155 3155 3155 3154 3155 3150 3141 3139 3140 3139 3139 3139 3138 3137 3136 3135 3133 3131 3129 3127 3126 3125 3123
3154 3154 3155 3155 3155 3155 3155 3156 3156 3156 3156 3156 3156 3156 3156 3156 3155 3155 3155 3155 3155 3155 3155 3155 3156 3156 3156 3157 3157 3157 3157 3158 3158 3158 3158 3158 3158 3158 3158 3158 3158 3158 3158 3158 3158 3158 3157 3157 3156 3155 3155 3154 3154 3154 3153 3153 3153 3153 3154 3154 3154 3155 3154 3154 3154 3153 3154 3154 3153 3155 3151 3140 3137 3139 3138 3138 3139 3137 3137 3135 3133 3131 3129 3128 3126 3124 3123 3121
3153 3153 3153 3154 3154 3154 3154 3154 3155 3155 3155 3155 3155 3155 3155 3155 3155 3155 3154 3154 3154 3154 3155 3155 3155 3155 3156 3156 3156 3156 3157 3157 3157 3157 3157 3157 3157 3157 3157 3157 3157 3157 3157 3157 3157 3157 3156 3155 3155 3154 3153 3153 3152 3152 3152 3152 3152 3153 3153 3153 3153 3153 3153 3154 3153 3152 3152 3151 3150 3153 3148 3138 3136 3138 3138 3138 3137 3136 3135 3132 3130 3128 3127 3126 3124 3123 3122 3120
3152 3152 3152 3152 3153 3153 3153 3153 3154 3154 3154 3154 3154 3154 3154 3154 3154 3154 3154 3154 3154 3154 3154 3154 3154 3155 3155 3155 3155 3156 3156 3156 3156 3156 3156 3156 3156 3156 3156 3156 3156 3156 3156 3156 3156 3156 3155 3154 3154 3153 3152 3152 3151 3151 3151 3151 3152 3152 3152 3153 3152 3152 3153 3152 3151 3152 3150 3146 3147 3149 3143 3136 3136 3137 3137 3137 3135 3134 3133 3130 3127 3125 3123 3123 3122 3121 3120 3118
3151 3151 3151 3151 3151 3152 3152 3152 3152 3152 3153 3153 3153 3153 3153 3153 3153 3153 3153 3153 3153 3153 3153 3153 3154 3154 3154 3154 3154 3155 3155 3155 3155 3155 3155 3155 3155 3155 3155 3155 3155 3155 3155 3155 3154 3154 3154 3153 3153 3152 3152 3152 3151 3150 3150 3150 3150 3150 3150 3151 3151 3151 3151 3150 3150 3150 3147 3143 3143 3142 3136 3132 3135 3135 3135 3135 3133 3132 3131 3128 3125 3123 3121 3120 3120 3119 3117 3116
3150 3150 3150 3151 3151 3151 3151 3151 3151 3151 3151 3152 3152 3152 3152 3152 3152 3152 3152 3152 3152 3152 3152 3153 3153 3153 3153 3153 3154 3154 3154 3154 3155 3154 3154 3154 3154 3154 3154 3154 3154 3154 3153 3153 3153 3152 3152 3151 3151 3151 3150 3150 3150 3149 3149 3148 3148 3148 3148 3148 3149 3149 3148 3148 3148 3146 3143 3141 3137 3134 3132 3130 3130 3131 3131 3131 3130 3129 3127 3126 3124 3122 3120 3118 3117 3117 3115 3113
3149 3149 3149 3150 3150 3149 3149 3150 3150 3150 3150 3150 3150 3150 3150 3151 3151 3151 3151 3151 3151 3151 3151 3151 3152 3152 3152 3152 3153 3153 3153 3153 3153 3153 3153 3153 3153 3153 3153 3152 3152 3152 3152 3151 3151 3150 3149 3149 3149 3148 3148 3148 3148 3147 3147 3146 3145 3145 3145 3145 3145 3146 3145 3144 3143 3140 3141 3140 3132 3129 3132 3129 3125 3127 3128 3127 3127 3125 3124 3123 3121 3120 3119 3117 3115 3114 3113 3111
3148 3148 3148 3149 3149 3148 3148 3148 3149 3149 3149 3149 3149 3149 3149 3149 3149 3149 3149 3149 3150 3150 3150 3150 3151 3151 3151 3151 3151 3151 3152 3152 3152 3152 3152 3151 3151 3151 3151 3151 3151 3150 3150 3150 3149 3149 3147 3146 3146 3146 3145 3146 3146 3145 3144 3143 3143 3142 3142 3141 3141 3142 3141 3139 3137 3137 3138 3136 3129 3128 3131 3128 3124 3125 3126 3125 3124 3122 3120 3119 3118 3117 3117 3115 3114 3113 3111 3109
3147 3147 3147 3147 3147 3147 3147 3147 3147 3147 3147 3147 3147 3147 3147 3148 3148 3148 3148 3148 3148 3148 3149 3149 3150 3150 3149 3150 3150 3150 3150 3150 3150 3150 3150 3150 3150 3149 3149 3149 3149 3148 3148 3148 3147 3147 3146 3144 3143 3143 3142 3142 3143 3143 3141 3141 3139 3138 3139 3139 3137 3137 3136 3135 3133 3134 3133 3130 3127 3127 3127 3125 3124 3123 3122 3122 3121 3118 3117 3116 3115 3114 3114 3113 3112 3110 3108 3106
3146 3146 3146 3146 3146 3146 3146 3146 3146 3146 3146 3146 3146 3146 3146 3146 3146 3146 3146 3147 3147 3147 3147 3148 3148 3148 3148 3148 3148 3148 3149 3149 3148 3148 3148 3148 3148 3148 3147 3147 3146 3146 3146 3146 3145 3145 3144 3142 3141 3141 3139 3138 3139 3139 3138 3137 3136 3135 3134 3134 3134 3133 3131 3130 3129 3130 3129 3126 3125 3125 3123 3122 3122 3121 3118 3118 3117 3116 3114 3113 3112 3113 3112 3110 3110 3108 3105 3103
3144 3144 3144 3144 3144 3144 3144 3144 3144 3144 3144 3144 3144 3144 3144 3144 3145 3145 3145 3145 3145 3145 3146 3146 3146 3146 3146 3147 3147 3147 3147 3147 3146 3146 3146 3146 3146 3146 3145 3144 3144 3144 3144 3144 3143 3143 3142 3140 3139 3139 3136 3134 3135 3135 3135 3134 3132 3130 3129 3129 3129 3128 3127 3127 3127 3126 3125 3123 3123 3122 3120 3118 3118 3118 3116 3115 3114 3112 3111 3111 3111 3111 3110 3108 3106 3104 3101 3100
3142 3142 3143 3143 3142 3143 3143 3143 3143 3142 3143 3143 3143 3143 3143 3143 3143 3143 3143 3143 3144 3144 3144 3144 3144 3145 3145 3145 3145 3145 3145 3145 3144 3144 3144 3144 3143 3143 3143 3142 3142 3142 3141 3142 3141 3140 3140 3138 3138 3137 3134 3131 3132 3132 3131 3131 3129 3125 3124 3125 3125 3125 3125 3124 3124 3124 3123 3120 3118 3117 3116 3115 3115 3114 3112 3112 3111 3110 3109 3109 3109 3108 3106 3105 3103 3100 3097 3096